[[{"header":{"parameterUnit":"m.s-1","parameterCategory":1,"la1":30.2991,"la2":30.254,"lo1":-89.0895,"lo2":-89.0444,"dy":0.0017,"dx":0.0017,"nx":28,"ny":28,"refTime":"2025-01-11T09:00:00:Z","depth":0,"parameterNumber":2,"parameterNumberName":"U-component_of_WINDS"},"data":[0,0,0,0,0,0,0,0,0,0,0,0,0,0,0,0,0,0,0,0,0,0,0,0,0,0,0,0,0,0,0,0,0,0,0,0,0,0,0,0,0,0,0,0,0,0,0,0,0,0,0,0,0,0,0,0,0,0,0.4458,0.4458,0,0.4468,0.4469,0.4469,0.4455,0.4454,0.4454,0.4453,0.4464,0.4465,0.4466,0,0,0,0,0,0,0,0,0,0,0,0,0,0.4427,0.4428,0.4458,0.4458,0.4459,0.4468,0.4469,0.4469,0.4455,0.4454,0.4453,0.4453,0.4464,0.4465,0.4466,0,0,0,0,0,0,0,0,0,0,0,0,0,0.4439,0.4428,0.4458,0.4453,0.4452,0.4468,0.4469,0.4469,0.4455,0.4454,0.4453,0.4453,0.4463,0.4465,0.4466,0.4488,0,0,0.4469,0.447,0,0,0,0,0,0,0,0,0.4439,0.4441,0.4453,0.4453,0.4453,0.4459,0.4462,0.4475,0.4455,0.4454,0.4453,0.4452,0.4463,0.4464,0.4468,0.4488,0.4489,0.4469,0.447,0.447,0.4471,0,0,0,0,0,0,0,0.4438,0.444,0.4462,0.4454,0.4453,0.445,0.4451,0.4464,0.4463,0.4454,0.4453,0.4454,0.4463,0.4467,0.4468,0.4489,0.4469,0.447,0.4471,0.4471,0.4528,0.4529,0,0,0,0,0,0,0.4438,0.4439,0.4462,0.4463,0.4444,0.4451,0.4452,0.4458,0.4462,0.4462,0.4455,0.4454,0.4465,0.4467,0.4468,0.4494,0.447,0.4472,0.4472,0.4527,0.4528,0.4529,0,0,0,0,0,0,0.4437,0.444,0.4462,0.4451,0.4453,0.4452,0.4459,0.4459,0.4463,0.4463,0.4463,0.4459,0.4465,0.4467,0.4483,0.4495,0.4472,0.4473,0.4526,0.4528,0.4529,0.4547,0,0,0,0,0,0,0.4436,0.444,0.4448,0.4451,0.4454,0.4476,0.446,0.4459,0.4465,0.4463,0.4467,0.4467,0.4464,0.4481,0.4484,0.4496,0.4474,0.4525,0.4527,0.4528,0.4545,0.4548,0.4551,0,0,0,0,0,0.4435,0.4453,0.4448,0.4451,0.4464,0.4477,0.4478,0.4475,0.4466,0.4474,0.4474,0.4467,0.4493,0.4483,0.4486,0.4498,0.4525,0.4526,0.4528,0.4544,0.4548,0.4551,0,0,0,0,0,0,0.4451,0.4453,0.4448,0.4467,0.4472,0.4474,0.4485,0.4479,0.4486,0.4485,0.448,0.4481,0.4498,0.45,0.4489,0.452,0.4507,0.451,0.4518,0.4522,0.4525,0.4524,0.4475,0,0,0,0,0,0.4457,0.4467,0.4468,0.4485,0.4487,0.4486,0.4491,0.4488,0.4492,0.4494,0.4496,0.4501,0.451,0.4516,0.4524,0.4545,0.4546,0.4555,0.4558,0.4561,0.4563,0.4574,0.4578,0.4535,0.4535,0.4535,0,0,0.4469,0.4471,0.4478,0.4488,0.4491,0.4502,0.4487,0.4499,0.4507,0.4496,0.4511,0.4513,0.4518,0.4536,0.4545,0.4538,0.4575,0.4563,0.4565,0.4566,0.4576,0.458,0.4584,0.4536,0.4536,0.4536,0,0,0.4496,0.4499,0.4513,0.4517,0.4521,0.452,0.4524,0.4527,0.4527,0.4543,0.4535,0.4544,0.456,0.4564,0.4568,0.4596,0.459,0.4599,0.4615,0.4626,0.4629,0.4632,0.4642,0.4646,0.4602,0.4602,0.4602,0,0.4511,0.4526,0.4521,0.4533,0.4538,0.4529,0.4543,0.4547,0.4554,0.4558,0.455,0.457,0.4573,0.4592,0.4599,0.4603,0.4607,0.4599,0.4629,0.4632,0.4635,0.4644,0.4648,0.4603,0.4603,0.4602,0.4602,0,0.4543,0.4554,0.4565,0.4572,0.4578,0.4591,0.4589,0.4595,0.4591,0.4591,0.4607,0.461,0.4618,0.4623,0.4619,0.4642,0.4637,0.463,0.4617,0.464,0.4649,0.4652,0.4604,0.4604,0.4604,0.4603,0,0,0.4581,0.4585,0.4589,0.4592,0.4597,0.4605,0.4618,0.4626,0.4632,0.4637,0.4648,0.4662,0.4655,0.4659,0.4656,0.4666,0.4688,0.4657,0.4657,0.4662,0.4712,0.4717,0.4722,0.4683,0.4684,0.4685,0.4711,0,0.4608,0.4629,0.4626,0.4647,0.4656,0.4648,0.4659,0.4663,0.4663,0.4671,0.4671,0.4681,0.4671,0.4674,0.4683,0.4683,0.4698,0.4681,0.4693,0.4694,0.4692,0.4726,0.4732,0.4757,0.4715,0.4715,0.4716,0,0.4642,0.4648,0.467,0.4673,0.4677,0.4687,0.4694,0.4702,0.4707,0.4706,0.4711,0.4707,0.4719,0.4707,0.4724,0.4713,0.4718,0.4719,0.4719,0.472,0.4706,0.4728,0.4765,0.4769,0.4721,0.4721,0.472,0,0.4667,0.4681,0.4696,0.4699,0.4702,0.471,0.4712,0.4715,0.4721,0.4727,0.473,0.4739,0.4743,0.4749,0.4747,0.4738,0.4765,0.4752,0.4764,0.4764,0.477,0.477,0.4809,0.4774,0.4774,0.4774,0.4774,0,0.4697,0.471,0.4707,0.4716,0.4731,0.4727,0.4742,0.4743,0.4746,0.4755,0.4749,0.4757,0.4754,0.4762,0.476,0.4775,0.4777,0.4777,0.4776,0.4777,0.4777,0.478,0.4778,0.4775,0.4774,0.4774,0.4774,0,0.4727,0.4725,0.474,0.4743,0.4744,0.4755,0.4757,0.4765,0.4765,0.4776,0.4779,0.4778,0.4788,0.4786,0.4797,0.4796,0.4814,0.4811,0.4812,0.4812,0.4824,0.4823,0.4866,0.4871,0.4833,0.4834,0.4834,0,0.4746,0.4756,0.4759,0.4765,0.4767,0.4777,0.4782,0.4778,0.4784,0.479,0.4797,0.4807,0.4814,0.483,0.483,0.4839,0.4836,0.485,0.4837,0.4838,0.4836,0.4835,0.4836,0.4853,0.4853,0.4854,0.4854,0,0.478,0.4778,0.4786,0.4793,0.48,0.4806,0.4811,0.4816,0.4812,0.4819,0.4829,0.4834,0.4845,0.4855,0.4862,0.4864,0.4859,0.4858,0.4862,0.4863,0.4863,0.4862,0.4819,0.4857,0.4857,0.4857,0.4856,0.4856,0.4805,0.4813,0.4817,0.4826,0.4829,0.4834,0.4842,0.4842,0.485,0.4859,0.4856,0.4867,0.4872,0.4881,0.4884,0.4893,0.4888,0.4893,0.4894,0.4895,0.4896,0.4862,0.4895,0.4895,0.4894,0.4894,0.4894,0,0.4838,0.484,0.4848,0.4855,0.4862,0.4856,0.4861,0.4867,0.4877,0.4882,0.4889,0.49,0.4909,0.491,0.4918,0.4925,0.4923,0.4927,0.4927,0.4927,0.4901,0.4897,0.4929,0.4929,0.4929,0.4929,0.4929,0.4929,0.4856,0.487,0.4869,0.4885,0.4887,0.4898,0.4901,0.4906,0.4909,0.4922,0.4929,0.493,0.4933,0.4941,0.4949,0.4949,0.4952,0.4958,0.4957,0.4933,0.4929,0.4926,0.4922,0.4959,0.4959,0.4983,0.4983,0.4983]},{"header":{"parameterUnit":"m.s-1","parameterCategory":1,"la1":30.2991,"la2":30.254,"lo1":-89.0895,"lo2":-89.0444,"dy":0.0017,"dx":0.0017,"nx":28,"ny":28,"refTime":"2025-01-11T09:00:00:Z","depth":0,"parameterNumber":3,"parameterNumberName":"V-component_of_WINDS"},"data":[0,0,0,0,0,0,0,0,0,0,0,0,0,0,0,0,0,0,0,0,0,0,0,0,0,0,0,0,0,0,0,0,0,0,0,0,0,0,0,0,0,0,0,0,0,0,0,0,0,0,0,0,0,0,0,0,0,0,-0.8441,-0.8442,0,-0.8525,-0.8526,-0.8527,-0.8581,-0.8581,-0.8582,-0.8582,-0.8666,-0.8668,-0.867,0,0,0,0,0,0,0,0,0,0,0,0,0,-0.8326,-0.8327,-0.8441,-0.8442,-0.8443,-0.8525,-0.8526,-0.8527,-0.8581,-0.8581,-0.8582,-0.8582,-0.8666,-0.8668,-0.867,0,0,0,0,0,0,0,0,0,0,0,0,0,-0.8389,-0.8328,-0.844,-0.848,-0.8484,-0.8524,-0.8526,-0.8527,-0.8581,-0.8581,-0.8582,-0.8582,-0.8665,-0.8668,-0.8671,-0.8678,0,0,-0.868,-0.8681,0,0,0,0,0,0,0,0,-0.8385,-0.8393,-0.8473,-0.8477,-0.8482,-0.8543,-0.8516,-0.8578,-0.8581,-0.8544,-0.8582,-0.8583,-0.8625,-0.8631,-0.8646,-0.8682,-0.8686,-0.868,-0.8682,-0.8683,-0.8684,0,0,0,0,0,0,0,-0.8381,-0.839,-0.8474,-0.8474,-0.8479,-0.8493,-0.8502,-0.8528,-0.858,-0.8547,-0.8551,-0.8561,-0.8627,-0.8643,-0.8648,-0.8687,-0.868,-0.8682,-0.8684,-0.8685,-0.8734,-0.8734,0,0,0,0,0,0,-0.8371,-0.8386,-0.8471,-0.8476,-0.8434,-0.8494,-0.8505,-0.8523,-0.858,-0.859,-0.856,-0.8563,-0.8638,-0.8645,-0.8651,-0.8664,-0.8683,-0.8686,-0.8687,-0.8735,-0.8734,-0.8734,0,0,0,0,0,0,-0.8368,-0.8378,-0.8468,-0.8432,-0.8445,-0.8496,-0.8515,-0.8524,-0.854,-0.859,-0.86,-0.8566,-0.8638,-0.8647,-0.8671,-0.8668,-0.8687,-0.8689,-0.8735,-0.8735,-0.8734,-0.869,0,0,0,0,0,0,-0.8364,-0.8376,-0.838,-0.8432,-0.8447,-0.8487,-0.8515,-0.8525,-0.8545,-0.8549,-0.8598,-0.8607,-0.8639,-0.8667,-0.8674,-0.8672,-0.8692,-0.8736,-0.8735,-0.8734,-0.8692,-0.8688,-0.8684,0,0,0,0,0,-0.836,-0.8364,-0.838,-0.839,-0.8452,-0.8486,-0.8495,-0.8532,-0.8544,-0.8548,-0.8581,-0.8605,-0.8667,-0.8669,-0.8678,-0.8676,-0.8736,-0.8735,-0.8734,-0.8693,-0.8688,-0.8684,0,0,0,0,0,0,-0.8309,-0.8371,-0.839,-0.8411,-0.8443,-0.8496,-0.8502,-0.8526,-0.8555,-0.8558,-0.8603,-0.8613,-0.8633,-0.8657,-0.8658,-0.8687,-0.8705,-0.8705,-0.867,-0.8666,-0.8662,-0.8656,-0.8694,0,0,0,0,0,-0.8301,-0.8324,-0.8376,-0.839,-0.8405,-0.845,-0.8467,-0.8493,-0.8528,-0.8542,-0.8576,-0.8609,-0.8636,-0.8652,-0.868,-0.8696,-0.8707,-0.8699,-0.8695,-0.8692,-0.8692,-0.8702,-0.8699,-0.8731,-0.8731,-0.8731,0,0,-0.8283,-0.8319,-0.8331,-0.838,-0.8408,-0.8431,-0.8461,-0.8484,-0.8501,-0.8545,-0.857,-0.8596,-0.8636,-0.8656,-0.8667,-0.8677,-0.8686,-0.8691,-0.8688,-0.869,-0.8701,-0.8698,-0.8695,-0.873,-0.873,-0.873,0,0,-0.8262,-0.8292,-0.8306,-0.8334,-0.8377,-0.8407,-0.841,-0.8459,-0.8479,-0.8505,-0.8538,-0.8559,-0.8604,-0.8631,-0.865,-0.864,-0.8664,-0.8647,-0.8628,-0.8637,-0.8635,-0.8633,-0.8629,-0.8627,-0.8647,-0.8647,-0.8647,0,-0.8234,-0.827,-0.831,-0.8331,-0.8352,-0.8393,-0.8408,-0.8433,-0.8482,-0.8495,-0.8506,-0.8564,-0.8593,-0.862,-0.8618,-0.8632,-0.8637,-0.8642,-0.8632,-0.863,-0.8629,-0.8626,-0.8625,-0.8645,-0.8645,-0.8646,-0.8646,0,-0.8234,-0.8258,-0.8265,-0.8311,-0.8333,-0.835,-0.8393,-0.841,-0.8434,-0.8463,-0.8489,-0.8526,-0.8562,-0.857,-0.8594,-0.8601,-0.8606,-0.8624,-0.8642,-0.8623,-0.8621,-0.862,-0.8642,-0.8643,-0.8643,-0.8644,0,0,-0.8183,-0.8253,-0.8254,-0.8276,-0.8326,-0.8346,-0.8365,-0.8401,-0.8414,-0.8446,-0.8463,-0.8501,-0.8518,-0.854,-0.8567,-0.8575,-0.8565,-0.8593,-0.8594,-0.8586,-0.8575,-0.8561,-0.8559,-0.8581,-0.8581,-0.8581,-0.8572,0,-0.817,-0.8207,-0.8244,-0.8269,-0.8292,-0.8331,-0.8348,-0.838,-0.8408,-0.8431,-0.8462,-0.8488,-0.8508,-0.8522,-0.8532,-0.8564,-0.8563,-0.8565,-0.8597,-0.8598,-0.8586,-0.8558,-0.8544,-0.8533,-0.8571,-0.8571,-0.8571,0,-0.8159,-0.819,-0.8217,-0.8265,-0.8276,-0.829,-0.8326,-0.8348,-0.8385,-0.8405,-0.843,-0.8458,-0.8481,-0.8497,-0.8528,-0.8528,-0.8543,-0.8561,-0.8562,-0.8566,-0.8583,-0.8562,-0.853,-0.8529,-0.857,-0.857,-0.857,0,-0.8119,-0.8168,-0.819,-0.8208,-0.8264,-0.8274,-0.8298,-0.8336,-0.8355,-0.8386,-0.8399,-0.8431,-0.8449,-0.8474,-0.8511,-0.8519,-0.8538,-0.8557,-0.8554,-0.8553,-0.8557,-0.8556,-0.8527,-0.8566,-0.8566,-0.8566,-0.8566,0,-0.8101,-0.8115,-0.8173,-0.8187,-0.8205,-0.8247,-0.8263,-0.8291,-0.8324,-0.8344,-0.838,-0.8397,-0.8445,-0.8468,-0.8497,-0.8518,-0.8526,-0.8542,-0.8549,-0.8539,-0.8537,-0.8549,-0.8551,-0.8566,-0.8566,-0.8566,-0.8566,0,-0.8059,-0.8099,-0.8126,-0.8178,-0.8191,-0.8202,-0.8246,-0.826,-0.829,-0.8314,-0.8322,-0.8369,-0.8398,-0.8437,-0.8478,-0.8497,-0.8515,-0.8527,-0.8502,-0.8507,-0.8502,-0.8502,-0.8481,-0.848,-0.8519,-0.8518,-0.8518,0,-0.8045,-0.8057,-0.811,-0.8126,-0.8149,-0.8174,-0.8194,-0.8236,-0.8256,-0.8299,-0.8308,-0.834,-0.8368,-0.8412,-0.845,-0.8481,-0.8494,-0.8484,-0.8499,-0.8488,-0.8494,-0.8493,-0.8494,-0.8481,-0.848,-0.8479,-0.8479,0,-0.8015,-0.8034,-0.8061,-0.8096,-0.8119,-0.8148,-0.8178,-0.8189,-0.8238,-0.8257,-0.8288,-0.8309,-0.8351,-0.8382,-0.8419,-0.8443,-0.8469,-0.8474,-0.8475,-0.8465,-0.845,-0.8458,-0.8493,-0.8474,-0.8475,-0.8475,-0.8476,-0.8476,-0.7987,-0.8,-0.8039,-0.8069,-0.8096,-0.8124,-0.8141,-0.8173,-0.8199,-0.8237,-0.826,-0.8289,-0.8327,-0.8379,-0.8402,-0.8425,-0.8435,-0.8437,-0.8437,-0.8437,-0.8433,-0.8446,-0.8432,-0.8432,-0.8432,-0.8432,-0.8432,0,-0.7958,-0.7986,-0.8013,-0.8055,-0.8078,-0.8101,-0.8136,-0.8154,-0.8179,-0.8212,-0.8239,-0.8274,-0.8304,-0.8344,-0.8377,-0.8388,-0.8401,-0.8395,-0.8395,-0.84,-0.8422,-0.8418,-0.8385,-0.8385,-0.8385,-0.8385,-0.8385,-0.8385,-0.7947,-0.797,-0.7994,-0.8031,-0.8058,-0.8088,-0.8106,-0.8132,-0.8158,-0.8196,-0.8222,-0.8248,-0.8283,-0.8319,-0.8348,-0.8359,-0.8369,-0.836,-0.8375,-0.8394,-0.8399,-0.8403,-0.8399,-0.8362,-0.8362,-0.8351,-0.8351,-0.8351]}]]